Location: Waco, TX
(31.5480°N, 97.1670°W)
Time: 19:55:34
(UTC-05:00)

ISS - Pass Details

Date: 19 September 2018
Orbit: 403 x 408 km, 51.6° (Epoch: 25 September)

Event Time Altitude Azimuth Distance (km) Brightness Sun altitude
Rises 20:28:04 0° 202° (SSW) 2,315 0.2 -13.3°
Reaches altitude 10° 20:30:19 10° 190° (S) 1,459 -1.0 -13.8°
Maximum altitude 20:33:10 28° 129° (SE) 799 -2.8 -14.4°
Enters shadow 20:33:17 28° 125° (SE) 801 -2.9 -14.4°
Drops below altitude 10° 20:36:02 10° 69° (ENE) 1,465 - -15.0°
Sets 20:38:17 0° 57° (ENE) 2,328 - -15.5°
